Location: Vancouver
(49.2500°N, 123.1330°W)
Time: 06:16:07
(UTC-07:00)

deb Explorer IX - Visible Passes

Search period start: 29 March 2017 00:00
Search period end: 08 April 2017 00:00
Orbit: 539 x 1128 km, 38.8° (Epoch: 26 March)

Date Brightness Start Highest point End Pass type
(mag) Time Alt. Az. Time Alt. Az. Time Alt. Az.
31 Mar ? 06:14:09 10° SSE 06:15:21 10° SE 06:16:34 10° SE visible
01 Apr ? 05:54:20 10° SSE 05:55:54 11° SE 05:57:29 10° SE visible
02 Apr ? 05:34:37 10° SSE 05:36:26 11° SE 05:38:16 10° SE visible
03 Apr ? 05:15:02 10° SSE 05:16:59 11° SE 05:19:00 10° SE visible
04 Apr ? 04:55:29 10° SSE 04:57:33 11° SE 04:59:40 10° ESE visible
05 Apr ? 04:36:01 10° SSE 04:38:08 12° SE 04:40:18 10° ESE visible
06 Apr ? 04:16:35 10° SSE 04:18:42 12° SE 04:20:54 10° ESE visible
06 Apr ? 05:59:20 10° SW 06:04:43 27° SSE 06:10:37 10° ESE visible
07 Apr ? 03:57:58 11° SSE 03:59:18 12° SE 04:01:30 10° ESE visible
07 Apr ? 05:40:02 10° SW 05:45:19 27° SSE 05:51:08 10° ESE visible
